User: anonymous   Login
Location: Newark
(44.2886°N, 4.8431°E)
Time: 05:16:36
(UTC+00:00)
Language:

FALCONSAT 3 - Orbit

View from above orbital plane
View from above orbital plane
View from above satellite
View from above satellite

Ground track
Ground track

The orbit data is extracted from the following two-line orbital elements,

1 30776U 07006E   20330.45305563  .00007016  00000-0  17949-3 0  9992
2 30776  35.4352 329.3712 0003484 220.8517 139.1950 15.38763972761641
Epoch (UTC): 25 November 2020 10:52:24
Eccentricity: 0.0003484
inclination: 35.4352°
perigee height: 447 km
apogee height: 452 km
right ascension of ascending node: 329.3712°
argument of perigee: 220.8517°
revolutions per day: 15.38763972
mean anomaly at epoch: 139.1950°
orbit number at epoch: 76164

The dashed part of the orbit path shows where the satellite is in the earth's shadow,  

DLR